FW1969 Weather Reports


time (UTC)temp
C
wind
direction
speed
KPH
gust
KPH
rain 1hr
cm
rain 24hr
cm
rain mn
cm
humidity
%
barometer
mb
20260509074521 16 192 1.6 4.8 0.00 0.00 0.00 40 1003.0
20260509073019 16 192 1.6 6.4 0.00 0.00 0.00 38 1003.1
20260509071517 16 192 3.2 6.4 0.00 0.00 0.00 38 1003.3
20260509070016 16 192 0.0 1.6 0.00 0.00 0.00 38 1003.3
20260509064512 16 192 0.0 4.8 0.00 0.00 0.00 37 1003.8
20260509063014 17 192 1.6 6.4 0.00 0.00 0.00 37 1004.1
20260509061511 17 192 0.0 4.8 0.00 0.00 0.00 36 1003.9
20260509060007 17 192 3.2 4.8 0.00 0.00 0.00 36 1003.9
20260509054506 17 192 1.6 8.0 0.00 0.00 0.00 35 1004.0
20260509053005 17 192 1.6 4.8 0.00 0.00 0.00 35 1003.9
20260509051504 17 192 1.6 6.4 0.00 0.00 0.00 35 1003.8
20260509050006 17 192 4.8 9.7 0.00 0.00 0.00 35 1004.0
20260509044502 17 193 3.2 8.0 0.00 0.00 0.00 35 1003.9
20260509043103 17 193 3.2 9.7 0.00 0.00 0.00 35 1004.0
20260509043001 17 193 3.2 9.7 0.00 0.00 0.00 34 1003.9
20260509041600 17 193 4.8 8.0 0.00 0.00 0.00 34 1003.9
20260509040058 17 193 4.8 9.7 0.00 0.00 0.00 34 1004.0
20260509034556 18 194 4.8 9.7 0.00 0.00 0.00 34 1004.1
20260509033055 18 194 3.2 8.0 0.00 0.00 0.00 34 1004.4
20260509031616 18 194 4.8 8.0 0.00 0.00 0.00 34 1004.4
20260509030051 18 194 4.8 9.7 0.00 0.00 0.00 34 1004.7
20260509024550 18 196 6.4 11.3 0.00 0.00 0.00 33 1004.8
20260509023056 18 204 3.2 6.4 0.00 0.00 0.00 33 1005.0
20260509021550 18 204 3.2 6.4 0.00 0.00 0.00 33 1005.0
20260509020049 18 205 3.2 8.0 0.00 0.00 0.00 32 1004.9
20260509014549 18 205 3.2 8.0 0.00 0.00 0.00 32 1004.8
20260509013049 18 207 4.8 11.3 0.00 0.00 0.00 31 1004.9
20260509011548 19 209 4.8 6.4 0.00 0.00 0.00 31 1004.8
20260509010046 19 209 4.8 11.3 0.00 0.00 0.00 30 1004.9
20260509004550 19 209 4.8 9.7 0.00 0.00 0.00 29 1004.8
20260509003045 20 211 8.0 14.5 0.00 0.00 0.00 28 1004.9
20260509001544 20 186 4.8 19.3 0.00 0.00 0.00 27 1004.8
20260509000053 21 217 9.7 19.3 0.00 0.00 0.00 26 1005.0
20260508234541 21 165 9.7 22.5 0.00 0.00 0.00 26 1005.0
20260508233041 21 240 12.9 20.9 0.00 0.00 0.00 25 1005.0
20260508231543 21 182 12.9 22.5 0.00 0.00 0.00 25 1005.0
20260508230039 21 225 14.5 30.6 0.00 0.00 0.00 25 1005.0
20260508224539 22 225 11.3 29.0 0.00 0.00 0.00 25 1005.3
20260508223039 22 188 17.7 30.6 0.00 0.00 0.00 24 1005.3
20260508221539 22 217 11.3 24.1 0.00 0.00 0.00 22 1005.0
20260508220042 22 224 4.8 29.0 0.00 0.00 0.00 23 1004.9
20260508214535 22 227 11.3 24.1 0.00 0.00 0.00 22 1004.8
20260508213044 23 225 12.9 19.3 0.00 0.00 0.00 21 1005.0
20260508211535 23 220 14.5 24.1 0.00 0.00 0.00 20 1005.0
20260508210033 23 210 8.0 19.3 0.00 0.00 0.00 21 1005.5
20260508204532 23 204 16.1 27.4 0.00 0.00 0.00 21 1005.7
20260508203034 23 173 11.3 27.4 0.00 0.00 0.00 20 1005.7
20260508201528 23 227 8.0 16.1 0.00 0.00 0.00 20 1006.0
20260508200031 23 226 11.3 27.4 0.00 0.00 0.00 21 1006.3
20260508194523 23 209 14.5 24.1 0.00 0.00 0.00 21 1006.6
20260508193021 23 167 9.7 24.1 0.00 0.00 0.00 20 1006.6
20260508191526 23 194 14.5 20.9 0.00 0.00 0.00 20 1007.0
20260508190019 23 171 12.9 29.0 0.00 0.00 0.00 20 1007.0
20260508184519 23 211 6.4 20.9 0.00 0.00 0.00 21 1007.0
20260508183016 22 161 14.5 29.0 0.00 0.00 0.00 21 1006.8
20260508181538 23 163 16.1 27.4 0.00 0.00 0.00 20 1007.2
20260508180011 22 153 11.3 24.1 0.00 0.00 0.00 20 1007.4
20260508174515 22 227 8.0 24.1 0.00 0.00 0.00 20 1007.7
20260508173004 22 180 9.7 24.1 0.00 0.00 0.00 21 1008.2
20260508171501 22 167 9.7 22.5 0.00 0.00 0.00 23 1008.6
20260508170059 22 203 11.3 24.1 0.00 0.00 0.00 23 1008.7
20260508164557 21 223 6.4 30.6 0.00 0.00 0.00 23 1009.2
20260508163051 21 249 12.9 25.7 0.00 0.00 0.00 23 1009.3
20260508161549 21 199 6.4 22.5 0.00 0.00 0.00 23 1009.6
20260508160044 21 219 9.7 22.5 0.00 0.00 0.00 24 1009.9
20260508154551 21 225 8.0 16.1 0.00 0.00 0.00 24 1010.2
20260508153038 20 203 11.3 20.9 0.00 0.00 0.00 25 1010.6
20260508151534 19 221 12.9 17.7 0.00 0.00 0.00 26 1010.8
20260508150030 18 248 9.7 19.3 0.00 0.00 0.00 29 1010.9
20260508144527 18 230 4.8 14.5 0.00 0.00 0.00 30 1011.0
20260508143029 17 204 6.4 14.5 0.00 0.00 0.00 31 1011.1
20260508141528 17 213 8.0 14.5 0.00 0.00 0.00 32 1011.0
20260508140015 16 209 4.8 14.5 0.00 0.00 0.00 33 1011.1
20260508134513 15 238 9.7 17.7 0.00 0.00 0.00 33 1011.3
20260508133010 15 219 6.4 14.5 0.00 0.00 0.00 34 1011.3
20260508131504 15 205 4.8 12.9 0.00 0.00 0.00 34 1011.0
20260508130059 14 208 6.4 14.5 0.00 0.00 0.00 36 1011.0
20260508124555 13 223 3.2 12.9 0.00 0.00 0.00 38 1010.9
20260508123051 12 281 3.2 11.3 0.00 0.00 0.00 41 1010.8
20260508121548 11 328 3.2 8.0 0.00 0.00 0.00 44 1010.7
20260508120049 10 329 1.6 6.4 0.00 0.00 0.00 46 1010.7
20260508114538 8 329 3.2 6.4 0.00 0.00 0.00 47 1010.6
20260508113035 8 329 1.6 6.4 0.00 0.00 0.00 48 1010.4
20260508111549 7 329 1.6 6.4 0.00 0.00 0.00 48 1010.3
20260508110030 7 329 1.6 4.8 0.00 0.00 0.00 48 1010.3
20260508104529 7 329 3.2 6.4 0.00 0.00 0.00 48 1010.2
20260508103033 7 329 3.2 8.0 0.00 0.00 0.00 48 1010.1
20260508101537 7 329 3.2 6.4 0.00 0.00 0.00 48 1010.1
20260508100028 7 329 3.2 8.0 0.00 0.00 0.00 48 1010.1
20260508094523 7 330 3.2 6.4 0.00 0.00 0.00 50 1010.3
20260508093023 7 330 3.2 4.8 0.00 0.00 0.00 50 1010.2
20260508091522 7 330 3.2 6.4 0.00 0.00 0.00 50 1010.3
20260508090021 7 330 3.2 6.4 0.00 0.00 0.00 50 1010.2
20260508084519 7 330 0.0 0.0 0.00 0.00 0.00 51 1010.2
20260508083018 7 330 0.0 0.0 0.00 0.00 0.00 51 1010.2
20260508081517 7 330 0.0 0.0 0.00 0.00 0.00 51 1010.2
20260508080015 7 330 0.0 0.0 0.00 0.00 0.00 51 1010.2